Wind_Speed
13 13 14 14 14 14 14 14 14 12 10 9 8 7 6 6 6 4 5 6 9 8 5 2 4 4 3 1 2 6 3 9 11 11 12 8 5 7 4 9 7 5 8 19 20
13 14 14 15 14 15 15 15 14 12 9 7 7 6 5 5 5 8 11 13 11 9 4 4 3 2 7 5 3 10 10 8 7 7 7 8 7 5 2 3 11 7 12 18 21
14 14 15 15 15 15 15 15 15 12 8 6 5 4 3 2 3 8 13 14 13 11 4 4 5 4 5 3 4 1 7 5 10 10 9 6 4 4 7 10 7 12 15 18 19
14 15 16 16 16 16 16 15 14 11 7 5 4 3 2 5 0 4 11 15 14 10 6 6 8 3 4 5 5 3 5 6 5 4 5 10 4 8 4 10 9 12 16 17 17
14 15 16 17 16 16 16 15 14 9 5 3 3 1 3 6 3 4 10 16 14 9 7 5 4 5 7 2 7 5 7 5 6 4 5 2 6 5 5 6 11 14 16 16 16
15 16 17 17 17 17 16 15 12 6 3 2 2 1 3 11 2 1 10 16 10 9 8 5 4 4 5 1 7 4 2 3 4 5 4 5 9 8 9 8 12 15 15 15 15
16 16 17 17 18 17 15 14 9 3 2 2 1 2 6 3 4 4 10 12 10 9 8 3 4 9 4 5 2 7 4 7 8 4 6 18 11 14 6 7 9 10 12 14 13
17 16 17 17 18 17 15 12 5 2 2 2 1 3 2 4 6 6 9 10 10 8 4 3 4 9 10 5 13 9 8 8 7 8 4 4 12 11 5 5 10 12 11 12 12
17 17 17 17 17 16 14 9 3 2 2 1 3 4 5 6 6 8 10 10 10 9 7 4 7 15 8 15 12 6 7 3 10 5 6 9 12 15 1 8 11 13 12 13 13
17 16 16 16 16 14 11 7 3 5 2 2 4 6 8 10 9 8 10 9 13 11 10 11 15 14 14 12 6 9 4 0 5 7 8 8 10 10 11 7 8 11 14 14 15
17 16 15 15 15 13 7 6 5 4 10 8 7 5 6 6 6 9 10 13 14 14 15 17 13 13 11 12 8 3 5 6 2 7 1 9 10 11 10 9 4 8 11 15 15
17 15 14 14 13 9 2 3 4 5 9 9 9 8 5 8 8 11 12 14 17 15 18 13 11 13 9 3 7 8 8 5 2 4 7 9 10 13 11 10 6 3 4 10 14
17 15 13 12 11 4 5 4 3 8 8 11 9 12 11 10 10 16 15 15 14 16 16 17 9 5 2 7 9 13 11 9 6 5 7 9 10 12 16 13 9 7 1 7 9
16 14 12 9 4 4 4 7 5 6 6 12 12 9 9 11 7 14 16 9 9 14 14 13 9 5 9 11 9 14 8 1 6 11 8 13 5 9 14 15 14 14 9 3 4
17 14 11 8 7 3 3 3 5 3 6 15 14 13 14 11 21 12 12 8 11 10 9 12 11 7 12 12 7 12 6 8 6 10 10 13 14 13 13 15 14 16 15 13 7
17 15 10 9 9 9 6 5 3 7 3 9 12 13 14 13 13 16 13 10 5 5 11 14 5 6 14 12 7 10 10 15 16 10 12 9 2 17 13 12 14 17 18 18 15
17 14 11 9 3 5 5 6 7 11 11 11 15 18 16 11 13 13 16 15 10 11 12 14 13 14 12 13 12 14 16 13 12 7 3 2 14 12 3 10 13 16 18 19 21
15 13 11 10 11 8 6 9 10 3 10 14 15 17 15 14 12 15 14 14 16 14 9 12 15 13 12 15 14 11 17 11 6 5 4 6 10 10 12 12 14 16 18 19 21
13 7 4 4 11 12 12 10 11 6 5 9 12 16 14 13 6 13 14 15 14 14 11 8 9 5 6 12 11 8 11 9 14 11 11 7 14 18 14 11 12 14 16 18 19
6 5 4 5 11 10 9 17 7 6 4 9 14 13 14 17 11 13 14 13 9 12 15 3 7 11 9 10 12 14 4 2 7 7 12 1 14 11 16 12 10 11 13 14 15
2 8 3 7 11 12 10 15 5 7 7 9 14 10 14 16 15 15 15 8 8 12 10 12 12 3 10 14 9 18 10 8 12 7 4 6 4 12 11 10 11 11 11 12 12
6 5 7 12 11 16 12 10 3 10 11 9 9 12 14 12 16 14 11 7 5 5 12 14 11 11 9 5 3 10 3 15 8 7 8 17 5 11 10 10 12 10 8 8 9
7 5 7 10 7 9 13 4 11 10 11 9 10 10 6 8 8 10 9 10 4 8 4 5 10 13 9 14 7 11 11 8 14 10 9 10 9 10 11 10 7 7 6 6 6
6 5 8 13 17 12 5 9 14 15 9 7 8 5 9 8 3 8 4 3 6 8 4 6 16 17 1 8 8 18 6 7 10 11 12 6 14 12 10 7 6 4 3 3 4
7 3 6 6 12 10 5 8 11 11 14 10 8 14 15 12 12 11 12 7 6 3 5 8 16 12 13 26 21 16 9 3 11 12 11 16 13 12 11 6 5 1 3 6 9
8 7 7 13 4 7 6 12 14 13 10 11 13 14 6 7 4 8 10 9 8 8 9 12 12 5 11 5 10 11 9 8 11 9 10 7 11 14 11 4 3 2 5 10 11
10 7 8 5 10 9 11 11 11 4 3 13 10 10 6 10 8 4 8 5 4 8 7 7 10 5 12 7 7 11 11 12 8 3 9 10 12 10 9 5 2 6 10 10 11
Wind_Direction
360 355 350 349 348 345 342 338 335 328 320 314 307 300 293 281 272 240 214 219 203 183 195 226 282 289 280 226 230 249 322 66 34 53 80 67 11 59 29 81 53 55 35 147 154
356 353 348 346 344 344 341 337 335 330 322 317 306 303 294 285 258 235 224 203 185 179 184 239 254 274 215 152 120 299 63 47 46 25 61 70 22 52 160 97 101 96 101 143 154
353 349 347 344 341 341 339 337 335 330 322 314 306 303 297 264 214 158 208 184 179 176 198 264 279 259 214 228 127 37 54 43 45 23 40 47 63 53 323 72 73 129 137 152 159
350 346 345 343 340 338 336 335 333 328 321 316 308 301 247 212 153 172 182 180 180 185 248 260 259 226 292 74 98 162 79 35 6 356 12 57 20 93 29 60 78 123 147 156 165
345 342 341 341 339 336 335 334 331 325 320 318 304 281 178 228 74 303 180 174 179 186 223 253 303 301 34 53 172 341 18 357 17 332 53 96 97 36 105 111 113 126 146 154 170
339 339 338 338 338 336 334 332 329 328 330 320 297 201 190 244 84 104 166 175 185 200 220 236 23 336 283 356 340 7 303 40 10 43 80 299 95 245 94 145 133 140 146 158 168
334 335 334 335 336 334 334 333 329 337 357 334 281 230 251 355 151 145 154 171 192 202 227 216 300 299 339 234 52 271 138 131 34 63 29 24 39 56 96 150 136 137 148 151 164
329 330 331 332 334 333 335 336 331 350 22 12 213 181 281 164 169 172 180 191 194 210 225 234 281 285 271 303 232 254 212 105 58 16 5 214 93 33 114 170 162 147 152 156 165
326 326 328 328 331 331 334 333 303 321 325 28 82 200 200 175 193 192 191 197 196 202 222 246 275 270 274 246 237 201 84 42 123 48 320 27 22 4 228 179 169 163 172 172 173
323 323 324 324 328 328 328 329 287 285 237 177 205 237 203 208 184 193 198 203 194 197 213 232 238 248 226 245 15 54 356 334 25 54 42 35 57 31 3 169 181 174 181 185 182
320 321 322 321 325 325 322 321 289 216 217 271 146 274 151 168 175 191 192 190 197 207 218 203 230 230 244 34 356 338 316 284 40 99 159 65 60 51 46 30 136 181 197 194 199
317 319 320 318 322 316 308 273 356 344 289 216 223 236 207 188 185 188 179 190 202 211 222 227 224 265 40 306 264 265 260 251 116 90 265 109 88 84 67 63 60 342 269 216 202
316 317 318 317 322 298 267 270 297 329 255 169 200 205 187 195 203 176 189 213 197 216 214 236 211 72 238 221 235 234 254 23 331 320 240 172 115 108 92 74 61 63 244 244 249
315 314 314 317 347 281 272 223 307 307 264 145 181 188 181 203 187 172 195 202 211 219 215 219 204 195 223 243 262 280 56 268 255 268 219 223 78 99 89 78 61 47 46 63 224
315 311 311 300 271 258 220 253 296 266 252 153 142 146 170 209 140 189 191 204 229 226 209 211 232 222 237 245 271 281 11 295 268 265 273 217 173 121 82 69 58 49 44 43 50
314 306 305 299 270 231 264 265 287 232 208 155 151 183 182 216 189 147 183 232 320 233 218 267 203 241 231 233 241 273 274 255 236 230 235 207 133 340 45 46 60 55 49 46 44
313 302 288 261 182 251 228 227 225 250 131 150 173 173 196 183 166 177 193 200 200 205 200 215 226 211 227 248 232 231 251 249 227 192 188 282 88 183 120 70 56 58 51 48 54
314 299 283 249 222 217 200 226 254 244 193 153 173 172 199 171 187 188 189 207 227 254 215 207 186 198 192 231 267 211 264 277 242 243 90 194 137 123 116 99 77 64 59 53 52
322 309 261 270 200 183 211 225 221 209 121 185 183 182 202 177 190 198 208 218 191 226 275 216 127 152 234 220 246 231 249 352 310 206 230 58 129 141 124 102 85 76 65 58 54
324 227 184 222 184 177 231 254 314 337 333 287 197 200 197 182 213 204 189 212 202 200 262 304 148 188 156 219 232 279 340 18 358 333 273 344 180 133 153 124 105 81 69 61 54
212 222 186 176 163 208 230 238 238 203 238 249 243 194 224 182 212 192 179 147 211 174 237 265 257 131 171 222 115 267 239 342 195 237 247 173 69 19 112 125 113 95 71 59 48
268 241 162 164 202 220 236 247 6 264 206 259 292 266 235 179 196 209 214 169 112 265 204 232 282 217 208 63 245 292 171 199 294 81 327 287 110 148 128 122 110 103 78 55 49
261 107 177 186 237 215 241 244 238 241 227 216 233 255 286 173 214 232 193 83 184 228 299 238 241 262 222 185 201 252 244 279 316 298 244 299 121 136 139 136 102 89 74 69 33
273 198 160 214 264 286 239 232 216 224 289 259 293 230 214 235 223 197 162 127 206 240 10 300 264 269 153 7 16 299 260 265 300 299 326 94 156 162 162 143 118 85 57 22 5
239 314 14 202 222 237 267 293 226 194 222 212 216 229 206 205 198 188 157 146 181 153 219 255 265 325 140 179 191 265 303 274 290 305 308 324 335 156 144 136 93 120 31 348 337
319 340 334 285 236 271 193 243 240 217 190 204 251 216 249 236 191 184 187 193 167 174 227 236 265 220 288 280 282 279 266 286 290 298 287 284 288 95 100 123 214 297 340 332 333
338 298 283 244 246 218 221 234 229 191 192 289 219 191 153 43 33 28 351 11 90 267 220 273 273 230 271 255 265 264 279 238 270 349 305 292 73 108 148 181 338 328 329 341 339
Height
1546 1544 1542 1539 1537 1534 1531 1528 1526 1524 1522 1521 1520 1519 1519 1518 1518 1519 1522 1523 1522 1521 1521 1523 1522 1520 1518 1514 1513 1508 1501 1507 1504 1505 1505 1507 1504 1511 1512 1512 1514 1517 1514 1523 1530
1546 1544 1541 1538 1536 1533 1530 1528 1525 1523 1521 1520 1519 1518 1518 1517 1517 1519 1520 1520 1521 1521 1522 1522 1519 1518 1511 1511 1510 1502 1502 1509 1505 1500 1503 1507 1507 1508 1507 1511 1516 1520 1522 1526 1531
1546 1543 1540 1538 1535 1532 1530 1527 1524 1522 1520 1519 1518 1518 1518 1517 1517 1515 1517 1518 1520 1521 1521 1523 1520 1515 1508 1506 1508 1507 1508 1506 1504 1507 1506 1506 1505 1509 1506 1505 1511 1517 1524 1529 1532
1545 1542 1539 1537 1534 1531 1529 1526 1523 1521 1520 1519 1518 1517 1517 1516 1510 1514 1516 1518 1520 1521 1524 1521 1516 1512 1505 1503 1509 1505 1506 1507 1507 1507 1505 1505 1510 1505 1510 1513 1515 1519 1525 1530 1534
1544 1542 1539 1536 1533 1530 1528 1525 1522 1520 1519 1518 1518 1517 1517 1518 1514 1514 1515 1518 1520 1522 1523 1520 1515 1513 1506 1508 1508 1503 1506 1507 1506 1504 1505 1508 1506 1508 1510 1515 1517 1521 1526 1531 1533
1544 1541 1538 1535 1532 1529 1526 1523 1521 1520 1519 1518 1517 1517 1518 1516 1516 1516 1516 1518 1521 1523 1522 1520 1518 1518 1511 1510 1506 1509 1507 1506 1505 1504 1505 1503 1504 1507 1511 1516 1518 1521 1526 1531 1533
1543 1540 1537 1534 1531 1528 1525 1522 1520 1519 1519 1518 1517 1517 1519 1516 1516 1517 1517 1520 1522 1523 1521 1522 1521 1518 1512 1506 1510 1506 1502 1502 1505 1505 1504 1505 1509 1508 1513 1516 1521 1525 1527 1530 1533
1541 1539 1536 1533 1530 1527 1524 1521 1520 1519 1519 1518 1518 1517 1513 1515 1517 1517 1519 1520 1522 1523 1523 1522 1522 1520 1515 1510 1504 1498 1495 1506 1508 1504 1506 1505 1520 1513 1514 1515 1518 1521 1527 1530 1533
1540 1537 1535 1531 1528 1526 1523 1521 1519 1519 1519 1518 1519 1519 1512 1514 1516 1517 1518 1519 1521 1522 1523 1522 1522 1516 1511 1502 1495 1496 1504 1508 1507 1507 1503 1503 1515 1513 1511 1513 1513 1519 1524 1528 1532
1537 1535 1533 1530 1527 1524 1522 1520 1519 1518 1519 1518 1518 1522 1514 1513 1514 1515 1517 1518 1520 1521 1523 1522 1518 1509 1503 1496 1513 1505 1509 1507 1509 1507 1506 1509 1516 1517 1511 1508 1510 1516 1520 1524 1528
1535 1533 1531 1528 1526 1523 1522 1519 1520 1519 1519 1510 1509 1509 1510 1512 1514 1515 1516 1517 1518 1519 1516 1514 1512 1508 1495 1496 1502 1506 1509 1510 1501 1505 1506 1513 1517 1518 1516 1511 1511 1512 1516 1519 1523
1533 1531 1529 1526 1524 1522 1521 1522 1519 1521 1512 1509 1510 1511 1510 1510 1511 1512 1515 1516 1515 1513 1511 1507 1513 1497 1498 1506 1507 1505 1507 1501 1499 1504 1503 1509 1516 1516 1518 1519 1519 1518 1514 1515 1517
1530 1528 1526 1524 1522 1521 1522 1522 1520 1519 1513 1504 1506 1507 1509 1511 1506 1509 1513 1511 1509 1509 1505 1505 1496 1499 1506 1505 1508 1502 1500 1502 1509 1501 1499 1502 1514 1512 1514 1519 1519 1519 1519 1518 1517
1528 1526 1524 1523 1524 1522 1521 1521 1520 1519 1505 1498 1503 1504 1507 1505 1503 1507 1509 1509 1504 1502 1499 1503 1494 1503 1506 1506 1500 1502 1493 1502 1505 1505 1509 1491 1540 1517 1513 1515 1520 1519 1517 1516 1518
1525 1523 1522 1522 1520 1522 1521 1520 1520 1520 1510 1489 1495 1500 1501 1499 1497 1506 1508 1508 1500 1499 1499 1500 1497 1502 1507 1501 1494 1498 1494 1498 1500 1502 1497 1494 1527 1511 1511 1516 1519 1522 1521 1518 1517
1522 1520 1519 1518 1517 1518 1518 1519 1521 1516 1504 1489 1490 1495 1497 1497 1497 1502 1507 1507 1500 1499 1500 1492 1497 1496 1495 1494 1496 1496 1497 1494 1489 1491 1509 1486 1500 1546 1524 1526 1521 1524 1525 1523 1521
1519 1516 1515 1515 1518 1516 1518 1520 1512 1502 1475 1486 1488 1488 1490 1491 1493 1498 1501 1502 1501 1510 1505 1498 1495 1494 1497 1497 1493 1494 1495 1505 1508 1502 1510 1484 1519 1561 1529 1527 1525 1526 1528 1527 1525
1514 1512 1511 1511 1512 1514 1518 1515 1511 1473 1475 1471 1474 1483 1488 1484 1486 1491 1495 1496 1491 1486 1483 1496 1504 1489 1489 1493 1488 1488 1482 1495 1516 1509 1503 1485 1509 1526 1521 1526 1526 1528 1530 1531 1530
1511 1509 1508 1509 1508 1512 1516 1505 1485 1472 1466 1473 1474 1483 1483 1481 1482 1487 1489 1487 1484 1487 1487 1484 1493 1485 1487 1485 1486 1483 1490 1471 1479 1473 1488 1509 1524 1515 1514 1521 1526 1530 1533 1534 1535
1509 1511 1510 1508 1508 1513 1510 1496 1476 1477 1476 1473 1480 1474 1484 1481 1487 1486 1486 1479 1481 1482 1480 1477 1497 1481 1486 1486 1484 1484 1479 1497 1517 1532 1510 1508 1504 1493 1510 1518 1526 1530 1534 1536 1537
1508 1506 1507 1507 1510 1511 1499 1484 1479 1483 1485 1478 1473 1471 1468 1476 1480 1482 1478 1478 1479 1483 1486 1479 1481 1495 1482 1485 1504 1496 1486 1493 1492 1500 1518 1521 1542 1498 1515 1519 1525 1532 1536 1538 1540
1509 1498 1505 1508 1509 1498 1488 1479 1487 1482 1484 1481 1476 1467 1469 1464 1476 1475 1475 1476 1486 1485 1489 1483 1477 1487 1482 1476 1479 1480 1487 1494 1489 1533 1540 1500 1528 1511 1520 1525 1527 1534 1537 1540 1541
1505 1499 1506 1507 1494 1484 1485 1486 1488 1482 1479 1477 1476 1471 1467 1469 1481 1473 1474 1485 1491 1489 1486 1481 1488 1492 1484 1478 1481 1486 1478 1479 1477 1475 1493 1498 1522 1514 1524 1527 1531 1533 1537 1540 1542
1509 1494 1501 1504 1496 1489 1479 1484 1484 1486 1482 1482 1475 1476 1476 1471 1473 1479 1479 1488 1492 1488 1493 1494 1481 1486 1512 1525 1526 1508 1486 1485 1488 1494 1489 1496 1515 1517 1519 1522 1529 1535 1538 1539 1541
1506 1490 1492 1488 1488 1487 1485 1481 1481 1479 1485 1483 1480 1475 1474 1477 1475 1478 1477 1490 1492 1496 1495 1491 1489 1479 1485 1505 1509 1490 1487 1491 1497 1494 1504 1496 1499 1497 1513 1522 1529 1535 1538 1539 1540
1510 1506 1498 1491 1491 1489 1488 1486 1481 1474 1476 1479 1479 1474 1469 1476 1473 1474 1477 1482 1487 1492 1489 1485 1493 1489 1493 1489 1491 1494 1489 1494 1496 1498 1500 1501 1507 1506 1522 1529 1532 1534 1536 1539 1540
1516 1512 1509 1492 1485 1485 1479 1480 1478 1473 1483 1478 1475 1475 1476 1485 1484 1485 1480 1482 1483 1488 1487 1489 1488 1495 1503 1485 1494 1505 1491 1488 1496 1499 1506 1510 1510 1517 1522 1528 1531 1535 1537 1539 1541